TimeCET,TemperatureF,Dew PointF,Humidity,Sea Level PressureIn,VisibilityMPH,Wind Direction,Wind SpeedMPH,Gust SpeedMPH,PrecipitationIn,Events,Conditions,WindDirDegrees,DateUTC
12:00 AM,44.6,37.4,76,29.80,-9999.0,West,15.0,-,N/A,,Clear,270,2012-11-05 23:00:00
12:30 AM,42.8,37.4,81,29.80,-9999.0,West,10.4,-,N/A,,Clear,260,2012-11-05 23:30:00
1:00 AM,41.0,35.6,81,29.80,-9999.0,West,5.8,-,N/A,,Clear,280,2012-11-06 00:00:00
1:30 AM,41.0,37.4,87,29.80,-9999.0,Variable,2.3,-,N/A,,Clear,0,2012-11-06 00:30:00
2:00 AM,41.0,37.4,87,29.83,-9999.0,SSW,5.8,-,N/A,,Clear,200,2012-11-06 01:00:00
3:00 AM,39.2,37.4,93,29.83,-9999.0,SW,6.9,-,N/A,,Clear,220,2012-11-06 02:00:00
3:30 AM,39.2,37.4,93,29.83,6.2,Variable,3.5,-,N/A,,Partly Cloudy,0,2012-11-06 02:30:00
4:00 AM,41.0,39.2,93,29.86,6.2,SW,5.8,-,N/A,,Scattered Clouds,220,2012-11-06 03:00:00
4:30 AM,41.0,37.4,87,29.86,6.2,SW,9.2,-,N/A,,Scattered Clouds,220,2012-11-06 03:30:00
5:00 AM,41.0,37.4,87,29.86,6.2,SW,9.2,-,N/A,,Partly Cloudy,230,2012-11-06 04:00:00
5:30 AM,41.0,37.4,87,29.86,6.2,West,8.1,-,N/A,,Partly Cloudy,260,2012-11-06 04:30:00
6:00 AM,37.4,35.6,93,29.89,-9999.0,Variable,2.3,-,N/A,,Clear,0,2012-11-06 05:00:00
6:30 AM,37.4,35.6,93,29.89,-9999.0,Variable,3.5,-,N/A,,Clear,0,2012-11-06 05:30:00
7:00 AM,37.4,35.6,93,29.89,-9999.0,Variable,1.2,-,N/A,,Clear,0,2012-11-06 06:00:00
7:30 AM,37.4,35.6,93,29.92,-9999.0,Variable,3.5,-,N/A,,Clear,0,2012-11-06 06:30:00
8:00 AM,42.8,39.2,87,29.92,-9999.0,Variable,1.2,-,N/A,,Clear,0,2012-11-06 07:00:00
8:30 AM,44.6,39.2,81,29.95,-9999.0,SW,4.6,-,N/A,,Clear,220,2012-11-06 07:30:00
9:00 AM,46.4,39.2,76,29.95,-9999.0,WSW,4.6,-,N/A,,Clear,240,2012-11-06 08:00:00
9:30 AM,51.8,37.4,58,29.95,-9999.0,West,13.8,-,N/A,,Clear,270,2012-11-06 08:30:00
10:00 AM,51.8,37.4,58,29.95,-9999.0,West,15.0,-,N/A,,Clear,280,2012-11-06 09:00:00
10:30 AM,53.6,35.6,51,29.95,-9999.0,WNW,17.3,-,N/A,,Clear,290,2012-11-06 09:30:00
11:00 AM,53.6,35.6,51,29.95,-9999.0,WNW,21.9,-,N/A,,Clear,290,2012-11-06 10:00:00
11:30 AM,55.4,33.8,44,29.95,-9999.0,West,18.4,-,N/A,,Clear,280,2012-11-06 10:30:00
12:00 PM,55.4,33.8,44,29.95,-9999.0,WSW,15.0,-,N/A,,Clear,250,2012-11-06 11:00:00
12:30 PM,55.4,33.8,44,29.95,-9999.0,West,19.6,-,N/A,,Clear,270,2012-11-06 11:30:00
1:00 PM,53.6,35.6,51,29.95,-9999.0,West,19.6,-,N/A,,Clear,270,2012-11-06 12:00:00
1:30 PM,53.6,33.8,47,29.95,6.2,West,17.3,-,N/A,,Scattered Clouds,270,2012-11-06 12:30:00
2:00 PM,53.6,33.8,47,29.95,6.2,West,19.6,-,N/A,,Mostly Cloudy,280,2012-11-06 13:00:00
2:30 PM,51.8,33.8,50,29.95,6.2,West,19.6,-,N/A,,Mostly Cloudy,280,2012-11-06 13:30:00
3:00 PM,51.8,33.8,50,29.98,6.2,West,13.8,-,N/A,,Mostly Cloudy,270,2012-11-06 14:00:00
3:30 PM,51.8,33.8,50,29.98,6.2,West,11.5,-,N/A,,Mostly Cloudy,270,2012-11-06 14:30:00
4:00 PM,50.0,35.6,58,29.98,6.2,West,16.1,-,N/A,,Mostly Cloudy,280,2012-11-06 15:00:00
4:30 PM,50.0,37.4,62,30.01,6.2,West,12.7,-,N/A,,Mostly Cloudy,280,2012-11-06 15:30:00
5:00 PM,50.0,35.6,58,30.01,-9999.0,West,12.7,-,N/A,,Clear,270,2012-11-06 16:00:00
5:30 PM,48.2,37.4,66,30.01,6.2,West,15.0,-,N/A,,Mostly Cloudy,280,2012-11-06 16:30:00
6:00 PM,48.2,37.4,66,30.04,6.2,West,9.2,-,N/A,,Scattered Clouds,280,2012-11-06 17:00:00
6:30 PM,46.4,35.6,66,30.04,-9999.0,WNW,13.8,-,N/A,,Clear,290,2012-11-06 17:30:00
7:00 PM,46.4,35.6,66,30.06,-9999.0,West,11.5,-,N/A,,Clear,280,2012-11-06 18:00:00
7:30 PM,44.6,33.8,66,30.06,-9999.0,WNW,12.7,-,N/A,,Clear,290,2012-11-06 18:30:00
8:00 PM,44.6,33.8,66,30.06,-9999.0,WNW,13.8,-,N/A,,Clear,290,2012-11-06 19:00:00
8:30 PM,44.6,33.8,66,30.09,-9999.0,West,8.1,-,N/A,,Clear,270,2012-11-06 19:30:00
9:00 PM,42.8,33.8,70,30.09,-9999.0,West,6.9,-,N/A,,Clear,260,2012-11-06 20:00:00
9:30 PM,42.8,32.0,66,30.09,-9999.0,Variable,3.5,-,N/A,,Clear,0,2012-11-06 20:30:00
10:00 PM,41.0,33.8,76,30.09,-9999.0,WSW,8.1,-,N/A,,Clear,240,2012-11-06 21:00:00
10:30 PM,41.0,33.8,76,30.12,-9999.0,WSW,6.9,-,N/A,,Clear,250,2012-11-06 21:30:00
11:00 PM,39.2,32.0,75,30.12,-9999.0,WSW,4.6,-,N/A,,Clear,250,2012-11-06 22:00:00
11:30 PM,39.2,32.0,75,30.12,-9999.0,WSW,4.6,-,N/A,,Clear,250,2012-11-06 22:30:00